EW5523 Weather Reports


Display with metric or nautical units.
time (UTC)temp
F
wind
direction
speed
MPH
gust
MPH
rain 1hr
in
rain 24hr
in
rain mn
in
humidity
%
barometer
mb
20200921004523 40 279 2.0 6.0 0.00 0.01 0.00 92 1002.6
20200921003026 40 313 2.0 6.0 0.00 0.01 0.00 91 1002.5
20200921001523 40 281 2.0 9.0 0.00 0.01 0.00 90 1002.2
20200921000009 41 293 2.0 7.0 0.00 0.01 0.00 91 1002.1
20200920234527 40 294 3.0 9.0 0.00 0.01 0.00 91 1002.1
20200920233157 41 291 2.0 11.0 0.00 0.01 0.00 91 1002.0
20200920231755 41 281 2.0 9.0 0.00 0.01 0.00 90 1001.7
20200920230320 41 288 3.0 7.0 0.00 0.01 0.00 90 1001.7
20200920224724 41 289 4.0 12.0 0.00 0.01 0.00 90 1001.5
20200920223220 41 303 5.0 10.0 0.00 0.01 0.00 90 1001.4
20200920221615 41 289 3.0 8.0 0.00 0.01 0.00 90 1001.3
20200920220119 41 303 4.0 10.0 0.00 0.01 0.00 90 1001.2
20200920214622 41 301 6.0 11.0 0.00 0.01 0.00 90 1001.1
20200920213131 41 293 3.0 11.0 0.00 0.01 0.00 91 1000.9
20200920211746 41 302 5.0 9.0 0.00 0.01 0.00 91 1000.7
20200920210119 41 304 4.0 10.0 0.00 0.01 0.00 91 1000.7
20200920204614 41 289 2.0 9.0 0.00 0.01 0.00 91 1000.5
20200920203104 41 293 3.0 8.0 0.00 0.01 0.00 90 1000.3
20200920201618 41 317 3.0 7.0 0.00 0.01 0.00 90 1000.2
20200920200110 41 301 2.0 6.0 0.00 0.01 0.01 90 1000.2
20200920194616 41 304 2.0 8.0 0.00 0.01 0.01 90 1000.1
20200920193056 41 293 2.0 10.0 0.00 0.01 0.01 90 1000.0
20200920191600 42 282 2.0 9.0 0.00 0.01 0.01 90 999.9
20200920190140 42 303 3.0 8.0 0.00 0.01 0.01 90 999.8
20200920184626 42 278 4.0 9.0 0.00 0.01 0.01 90 999.7
20200920183108 42 324 3.0 8.0 0.00 0.01 0.01 90 999.7
20200920181608 42 271 2.0 10.0 0.00 0.01 0.01 90 999.6
20200920180033 42 299 3.0 6.0 0.00 0.01 0.01 89 999.6
20200920174550 42 296 2.0 6.0 0.00 0.01 0.01 89 999.5
20200920173047 42 277 2.0 6.0 0.00 0.01 0.01 88 999.4
20200920171554 42 328 3.0 7.0 0.00 0.01 0.01 88 999.2
20200920170039 42 298 2.0 7.0 0.00 0.01 0.01 87 999.2
20200920164535 42 281 2.0 5.0 0.00 0.01 0.01 87 999.0
20200920163101 41 274 2.0 6.0 0.00 0.01 0.01 85 998.9
20200920161526 42 290 3.0 7.0 0.00 0.01 0.01 83 998.7
20200920160028 42 297 1.0 4.0 0.00 0.01 0.01 81 998.5
20200920154513 43 303 2.0 6.0 0.00 0.01 0.01 79 998.3
20200920153038 43 299 1.0 4.0 0.00 0.01 0.01 78 998.1
20200920151518 43 308 2.0 5.0 0.00 0.01 0.01 77 997.8
20200920150023 44 300 2.0 6.0 0.00 0.01 0.01 76 997.6
20200920144516 45 298 2.0 5.0 0.00 0.01 0.01 74 997.4
20200920143027 45 287 3.0 7.0 0.00 0.01 0.01 72 997.2
20200920141521 46 306 3.0 10.0 0.00 0.01 0.01 70 997.0
20200920140209 46 312 4.0 11.0 0.00 0.01 0.01 69 996.8
20200920134628 47 309 3.0 12.0 0.00 0.01 0.01 67 996.7
20200920133239 48 349 4.0 10.0 0.00 0.01 0.01 67 996.6
20200920131920 48 333 3.0 12.0 0.00 0.01 0.01 66 996.5
20200920130132 48 285 4.0 19.0 0.00 0.01 0.01 66 996.3
20200920124719 48 301 5.0 16.0 0.00 0.01 0.01 66 996.2
20200920123109 48 315 8.0 14.0 0.00 0.01 0.01 65 996.0
20200920121751 48 278 5.0 15.0 0.00 0.01 0.01 67 995.8
20200920120211 48 321 4.0 13.0 0.01 0.01 0.01 66 995.6
20200920114705 48 305 8.0 19.0 0.01 0.01 0.01 65 995.4
20200920113123 49 314 4.0 12.0 0.01 0.01 0.01 65 995.4
20200920111710 49 300 7.0 22.0 0.01 0.01 0.01 63 995.1
20200920110128 48 320 4.0 15.0 0.00 0.00 0.00 65 995.0
20200920104650 48 289 9.0 17.0 0.00 0.00 0.00 65 995.0
20200920103109 48 348 9.0 16.0 0.00 0.00 0.00 63 994.8
20200920101732 49 310 7.0 16.0 0.00 0.00 0.00 63 994.7
20200920100146 48 324 7.0 17.0 0.00 0.00 0.00 65 994.5
20200920094701 48 341 3.0 16.0 0.00 0.00 0.00 66 994.4
20200920093222 48 307 7.0 14.0 0.00 0.00 0.00 65 994.3
20200920091734 47 274 5.0 14.0 0.00 0.00 0.00 67 994.1
20200920090154 47 50 3.0 15.0 0.00 0.00 0.00 70 994.1
20200920084630 47 301 8.0 18.0 0.00 0.00 0.00 67 994.0
20200920083156 47 292 4.0 13.0 0.00 0.00 0.00 67 993.9
20200920081704 47 316 3.0 13.0 0.00 0.00 0.00 67 993.9
20200920080141 46 291 4.0 9.0 0.00 0.00 0.00 68 993.9
20200920074556 46 297 7.0 12.0 0.00 0.00 0.00 69 993.9
20200920073100 45 296 4.0 15.0 0.00 0.00 0.00 71 994.0
20200920071651 45 312 6.0 15.0 0.00 0.00 0.00 71 993.8
20200920070115 45 359 4.0 15.0 0.00 0.00 0.00 72 993.9
20200920064553 45 330 7.0 13.0 0.00 0.00 0.00 72 993.9
20200920063150 44 282 7.0 14.0 0.00 0.00 0.00 75 993.8
20200920061528 43 325 5.0 12.0 0.00 0.00 0.00 78 993.8
20200920060102 43 305 4.0 13.0 0.00 0.00 0.00 80 993.8
20200920054636 42 324 6.0 12.0 0.00 0.00 0.00 82 993.9
20200920053055 42 272 6.0 19.0 0.00 0.00 0.00 83 994.1
20200920051607 42 291 4.0 10.0 0.00 0.00 0.00 84 994.2
20200920050047 42 305 4.0 9.0 0.00 0.00 0.00 84 994.3
20200920044524 42 318 4.0 15.0 0.00 0.00 0.00 83 994.3
20200920043044 42 308 4.0 10.0 0.00 0.00 0.00 81 994.4
20200920041527 42 34 5.0 12.0 0.00 0.00 0.00 82 994.7
20200920040023 42 11 4.0 16.0 0.00 0.00 0.00 84 994.8
20200920034555 42 293 3.0 11.0 0.00 0.00 0.00 86 994.7
20200920033028 42 345 3.0 9.0 0.00 0.00 0.00 86 994.9
20200920031522 42 318 4.0 10.0 0.00 0.00 0.00 85 994.9
20200920030032 42 318 4.0 12.0 0.00 0.00 0.00 85 994.9
20200920024537 42 354 3.0 8.0 0.00 0.00 0.00 87 994.9
20200920023024 42 318 1.0 6.0 0.00 0.00 0.00 87 994.9
20200920021540 42 21 0.0 8.0 0.00 0.00 0.00 87 994.9
20200920020009 42 312 1.0 9.0 0.00 0.00 0.00 87 994.9
20200920014524 42 286 4.0 9.0 0.00 0.00 0.00 87 994.7
20200920013151 42 43 1.0 5.0 0.00 0.00 0.00 88 994.7
20200920011606 42 23 1.0 11.0 0.00 0.00 0.00 89 994.8
20200920010130 42 342 2.0 7.0 0.00 0.00 0.00 89 994.9
20200920004648 42 284 2.0 7.0 0.00 0.00 0.00 90 995.0